Hondo, TX

7:23 AM CST on December 09, 2019 (GMT -0600)
Hondo Municipal

Weather History for KHDO - October, 2019

Change the Weather History Date:

Wednesday, October 16, 2019

  Actual Average Record
Temperature  
Mean Temperature 68 °F -  
Max Temperature 73 °F 80 °F 93 °F (2016)
Min Temperature 64 °F 56 °F 44 °F (2002)
Cooling Degree Days 4    
Growing Degree Days 18 (Base 50)    
Moisture  
Dew Point 57 °F    
Average Humidity 68    
Maximum Humidity 94    
Minimum Humidity 39    
Precipitation  
Precipitation 0.62 in - - ()
Sea Level Pressure  
Sea Level Pressure 30.02 in    
Wind  
Wind Speed 8 mph (NNE)    
Max Wind Speed 16 mph    
Max Gust Speed 22 mph    
Visibility 8 miles    
Events Rain , Thunderstorm    
Averages and records for this station are not official NWS values.
T = Trace of Precipitation, MM = Missing Value Source: NWS Daily Summary

Daily Weather History Graph

Daily Weather History Graph

Search for Another Location

Airport or City:

Astronomy

Oct. 16, 2019 Rise Set
Actual Time 7:38 AM CDT 7:05 PM CDT
Civil Twilight 7:14 AM CDT 7:29 PM CDT
Nautical Twilight 6:46 AM CDT 7:57 PM CDT
Astronomical Twilight 6:19 AM CDT 8:24 PM CDT
Moon 9:10 PM CDT (10/16) 10:02 AM CDT (10/16)
Length of Visible Light 12h 14m
Length of Day
11h 26m
Waning Gibbous, 92% of the Moon is Illuminated
Oct 16
Waning Gibbous
Oct 21
Last Quarter
Oct 27
New
Nov 4
First Quarter
Nov 12
Full

Hourly Weather History & Observations

Time (CDT) Temp. Dew Point Humidity Pressure Visibility Wind Dir Wind Speed Gust Speed Precip Events Conditions
12:41 AM 73.0 °F 70.0 °F 90% 29.97 in 2.0 mi WSW 4.6 mph - 0.18 in Rain , Thunderstorm Heavy Thunderstorms and Rain
12:49 AM 71.6 °F 69.8 °F 94% 29.96 in 1.2 mi East 6.9 mph - 0.38 in Rain , Thunderstorm Heavy Thunderstorms and Rain
12:58 AM 72.0 °F 70.0 °F 93% 29.95 in 2.5 mi East 13.8 mph - 0.04 in Rain , Thunderstorm Heavy Thunderstorms and Rain
1:06 AM 73.0 °F 70.0 °F 90% 29.94 in 7.0 mi ESE 10.4 mph - 0.04 in Rain , Thunderstorm Light Thunderstorms and Rain
1:25 AM 73.0 °F 70.0 °F 90% 29.93 in 6.0 mi East 4.6 mph - 0.08 in Rain , Thunderstorm Heavy Rain
1:51 AM 73.0 °F 70.0 °F 90% 29.90 in 10.0 mi North 10.4 mph - 0.10 in Rain , Thunderstorm Light Thunderstorms and Rain
2:51 AM 73.0 °F 70.0 °F 90% 29.94 in 7.0 mi SE 3.5 mph - 0.12 in Rain , Thunderstorm Thunderstorms and Rain
3:03 AM 73.0 °F 70.0 °F 90% 29.99 in 6.0 mi ESE 3.5 mph - 0.03 in Rain , Thunderstorm Rain
3:18 AM 73.0 °F 71.1 °F 93% 29.98 in 5.0 mi North 6.9 mph - 0.06 in Rain Rain
3:36 AM 69.1 °F 64.0 °F 84% 30.00 in 6.0 mi North 16.1 mph 21.9 mph 0.09 in Rain , Thunderstorm Rain
3:43 AM 68.0 °F 64.0 °F 87% 30.01 in 8.0 mi North 15.0 mph - 0.10 in Rain , Thunderstorm Rain
3:51 AM 68.0 °F 64.0 °F 87% 29.96 in 9.0 mi North 11.5 mph - 0.11 in Rain Light Rain
4:27 AM 66.9 °F - N/A% 30.01 in 9.0 mi North 11.5 mph - 0.04 in Rain , Thunderstorm Rain
4:51 AM 66.9 °F - N/A% 29.97 in 6.0 mi North 11.5 mph - 0.10 in Rain , Thunderstorm Heavy Rain
5:04 AM 66.0 °F - N/A% 30.00 in 6.0 mi NNE 15.0 mph - 0.05 in Rain Heavy Rain
5:51 AM 66.0 °F - N/A% 29.97 in 9.0 mi North 8.1 mph - 0.16 in Rain Light Rain
6:51 AM 66.9 °F - N/A% 29.98 in 10.0 mi North 12.7 mph - 0.02 in   Clear
7:51 AM 66.9 °F 63.0 °F 87% 29.99 in 10.0 mi NNE 15.0 mph - 0.01 in   Clear
8:51 AM 66.9 °F 63.0 °F 87% 30.05 in 10.0 mi NNE 11.5 mph - 0.00 in Rain Light Rain
9:51 AM 66.9 °F 59.0 °F 76% 30.08 in 10.0 mi NNE 12.7 mph - 0.00 in   Clear
10:51 AM 66.0 °F 52.0 °F 60% 30.10 in 10.0 mi NNE 12.7 mph - N/A   Mostly Cloudy
11:51 AM 66.0 °F 48.0 °F 52% 30.12 in 10.0 mi NNE 11.5 mph - N/A   Overcast
12:51 PM 66.0 °F 48.0 °F 52% 30.13 in 10.0 mi North 11.5 mph - 0.00 in   Mostly Cloudy
1:51 PM 66.9 °F 46.0 °F 47% 30.12 in 10.0 mi NE 5.8 mph - N/A   Overcast
2:51 PM 69.1 °F 44.1 °F 40% 30.08 in 10.0 mi NE 6.9 mph - N/A   Overcast
3:51 PM 69.1 °F 43.0 °F 39% 30.06 in 10.0 mi NNE 6.9 mph - N/A   Overcast
4:03 PM 69.1 °F 43.0 °F 39% 30.10 in 10.0 mi NNE 5.8 mph - N/A   Overcast
4:51 PM 69.1 °F 44.1 °F 40% 30.06 in 10.0 mi NE 4.6 mph - N/A   Overcast
5:51 PM 66.9 °F 46.9 °F 49% 30.04 in 10.0 mi WNW 5.8 mph - N/A   Overcast
6:51 PM 68.0 °F 46.9 °F 47% 30.02 in 10.0 mi NW 6.9 mph - N/A   Overcast
7:51 PM 64.9 °F 48.9 °F 56% 30.04 in 10.0 mi NNW 4.6 mph - N/A   Overcast
8:51 PM 64.0 °F 50.0 °F 60% 30.06 in 10.0 mi Calm Calm - N/A   Mostly Cloudy
9:51 PM 66.0 °F 46.0 °F 48% 30.08 in 10.0 mi ENE 3.5 mph - N/A   Overcast
10:51 PM 66.0 °F 45.0 °F 47% 30.09 in 10.0 mi East 6.9 mph - N/A   Mostly Cloudy
11:51 PM 64.9 °F 45.0 °F 48% 30.11 in 10.0 mi East 3.5 mph - N/A   Overcast